Amarillo, TX

7:53 PM CDT on September 20, 2019 (GMT -0500)
Amarillo International

Weather History for KAMA - May, 2019

Change the Weather History Date:

Thursday, May 16, 2019

  Actual Average Record
Temperature  
Mean Temperature 73 °F 66 °F  
Max Temperature 86 °F 80 °F 103 °F (1996)
Min Temperature 60 °F 52 °F 35 °F (1945)
Degree Days  
Heating Degree Days 0 2  
Month to date heating degree days 89 60  
Since 1 July heating degree days 4072 4148  
Cooling Degree Days 8 3  
Month to date cooling degree days 19 35  
Year to date cooling degree days 35 56  
Growing Degree Days 23 (Base 50)    
Moisture  
Dew Point 54 °F    
Average Humidity 55    
Maximum Humidity 78    
Minimum Humidity 32    
Precipitation  
Precipitation 0.00 in 0.07 in 3.70 in (1951)
Month to date precipitation 1.35 0.93  
Year to date precipitation 5.44 5.00  
Snow  
Snow 0.00 in 0.00 in T in (1989)
Month to date snowfall 0.0 0.2  
Since 1 July snowfall 8.1 17.8  
Snow Depth 0.00 in    
Sea Level Pressure  
Sea Level Pressure 29.78 in    
Wind  
Wind Speed 19 mph (South)    
Max Wind Speed 28 mph    
Max Gust Speed 33 mph    
Visibility 10 miles    
Events      
T = Trace of Precipitation, MM = Missing Value Source: NWS Daily Summary

Daily Weather History Graph

Daily Weather History Graph

Search for Another Location

Airport or City:

Astronomy

May. 16, 2019 Rise Set
Actual Time 6:42 AM CDT 8:44 PM CDT
Civil Twilight 6:13 AM CDT 9:13 PM CDT
Nautical Twilight 5:39 AM CDT 9:47 PM CDT
Astronomical Twilight 5:02 AM CDT 10:24 PM CDT
Moon 6:33 PM CDT (5/16) 5:32 AM CDT (5/16)
Length of Visible Light 14h 59m
Length of Day
14h 02m
Waxing Gibbous, 94% of the Moon is Illuminated
May 16
Waxing Gibbous
May 18
Full
May 26
Last Quarter
Jun 3
New
Jun 10
First Quarter

Hourly Weather History & Observations

Time (CDT) Temp. Heat Index Dew Point Humidity Pressure Visibility Wind Dir Wind Speed Gust Speed Precip Events Conditions
12:53 AM 66.0 °F - 48.0 °F 52% 29.84 in 10.0 mi South 16.1 mph - N/A   Clear
1:53 AM 63.0 °F - 48.9 °F 60% 29.84 in 10.0 mi South 15.0 mph - N/A   Clear
2:53 AM 63.0 °F - 50.0 °F 63% 29.82 in 10.0 mi SSW 17.3 mph - N/A   Clear
3:53 AM 62.1 °F - 51.1 °F 67% 29.82 in 10.0 mi SSW 18.4 mph - N/A   Clear
4:53 AM 61.0 °F - 52.0 °F 72% 29.82 in 10.0 mi SSW 16.1 mph - N/A   Clear
5:53 AM 60.1 °F - 52.0 °F 75% 29.82 in 10.0 mi SSW 16.1 mph - N/A   Clear
6:53 AM 61.0 °F - 53.1 °F 75% 29.83 in 10.0 mi SSW 15.0 mph - N/A   Clear
7:53 AM 62.1 °F - 55.0 °F 78% 29.85 in 10.0 mi South 15.0 mph - N/A   Clear
8:53 AM 66.9 °F - 57.0 °F 70% 29.85 in 10.0 mi SSW 18.4 mph - N/A   Clear
9:53 AM 72.0 °F - 57.0 °F 59% 29.85 in 10.0 mi SSW 25.3 mph 32.2 mph N/A   Clear
10:53 AM 75.9 °F - 57.9 °F 54% 29.85 in 10.0 mi South 19.6 mph 27.6 mph N/A   Clear
11:53 AM 79.0 °F - 57.0 °F 47% 29.82 in 10.0 mi South 19.6 mph 26.5 mph N/A   Clear
12:53 PM 81.0 °F 80.7 °F 55.0 °F 41% 29.81 in 10.0 mi South 18.4 mph - N/A   Clear
1:53 PM 84.0 °F 83.0 °F 55.9 °F 38% 29.79 in 10.0 mi South 18.4 mph 23.0 mph N/A   Clear
2:53 PM 82.9 °F 81.9 °F 54.0 °F 37% 29.77 in 10.0 mi South 23.0 mph 27.6 mph N/A   Clear
3:53 PM 84.0 °F 82.6 °F 54.0 °F 35% 29.75 in 10.0 mi South 20.7 mph 27.6 mph N/A   Clear
4:53 PM 84.0 °F - 52.0 °F 33% 29.73 in 10.0 mi South 21.9 mph 26.5 mph N/A   Clear
5:53 PM 82.9 °F 81.8 °F 53.1 °F 36% 29.71 in 10.0 mi South 21.9 mph 28.8 mph N/A   Clear
6:53 PM 81.0 °F - 51.1 °F 35% 29.70 in 10.0 mi South 21.9 mph - N/A   Clear
7:53 PM 80.1 °F - 52.0 °F 38% 29.69 in 10.0 mi SSE 18.4 mph - N/A   Clear
8:53 PM 75.9 °F - 53.1 °F 45% 29.69 in 10.0 mi SSE 17.3 mph - N/A   Clear
9:53 PM 72.0 °F - 55.0 °F 55% 29.69 in 10.0 mi SSE 17.3 mph - N/A   Clear
10:53 PM 71.1 °F - 57.0 °F 61% 29.70 in 10.0 mi SSE 19.6 mph - N/A   Clear
11:53 PM 70.0 °F - 57.0 °F 63% 29.70 in 10.0 mi SSE 17.3 mph - N/A   Clear